Location: Biltmore Gardens
(41.6070°N, 83.4666°W)
Time: 14:20:08
(UTC+00:00)

Cosmos 371 Rocket - Pass Details

Date: 14 July 2020
Orbit: 684 x 699 km, 74.0° (Epoch: 04 August)

Event Time Altitude Azimuth Distance (km) Brightness Sun altitude
Rises 03:20:47 0° 345° (NNW) 3,076 7.9 -19.1°
Reaches altitude 10° 03:23:12 10° 352° (N) 2,153 6.8 -19.3°
Maximum altitude 03:27:52 46° 66° (ENE) 922 3.8 -19.8°
Enters shadow 03:29:11 37° 109° (ESE) 1,074 3.9 -19.9°
